Waarnemingen

Advertentie
Mijn weer
UFS Deutsche Bucht, Duitsland (10007): temperatuur & dauwpunt: 17.07.2017 08:00:00 - 23.07.2017 08:00:00 (CEST)UFS Deutsche Bucht, Duitsland (10007): windsnelheid & windstoten: 17.07.2017 08:00:00 - 23.07.2017 08:00:00 (CEST)UFS Deutsche Bucht, Duitsland (10007): windrichting: 17.07.2017 08:00:00 - 23.07.2017 08:00:00 (CEST)UFS Deutsche Bucht, Duitsland (10007): luchtdruk: 17.07.2017 08:00:00 - 23.07.2017 08:00:00 (CEST)UFS Deutsche Bucht, Duitsland (10007): zicht: 17.07.2017 08:00:00 - 23.07.2017 08:00:00 (CEST)UFS Deutsche Bucht, Duitsland (10007): Zonneschijnduur: 17.07.2017 08:00:00 - 23.07.2017 08:00:00 (CEST)
Datum & Tijd tt [°C] td [°C] ff [km/u] ff [kn] fx [km/u] fx [kn] dd ppp [hPa] vv [km] sd [min]
23.07.2017 08:00:00 16,6 16,1 22 12 - - ZO 1009,0 10 0
23.07.2017 07:00:00 16,2 15,5 11 6 - - ONO 1008,6 9 0
23.07.2017 06:00:00 - - - - - - - - - -
23.07.2017 05:00:00 17,0 16,7 11 6 - - OZO 1010,0 3,6 0
23.07.2017 04:00:00 17,4 16,8 32 18 - - OZO 1009,7 10 0
23.07.2017 03:00:00 17,7 17,1 32 18 54 29 OZO 1009,3 10 0
23.07.2017 02:00:00 17,9 17,7 40 21 - - OZO 1010,6 9 0
23.07.2017 01:00:00 17,7 17,5 43 23 50 27 OZO 1011,3 4,4 0
23.07.2017 00:00:00 17,8 17,7 32 18 - - O 1011,8 5 0
22.07.2017 23:00:00 18,1 17,2 29 16 - - OZO 1012,5 5 0
22.07.2017 22:00:00 18,5 17,2 32 18 - - O 1012,3 10 0
22.07.2017 21:00:00 18,7 17,6 29 16 - - O 1012,1 10 0
22.07.2017 20:00:00 18,5 17,6 32 18 - - O 1012,1 10 30
22.07.2017 19:00:00 - - - - - - - - - -
22.07.2017 18:00:00 18,2 17,2 25 14 - - O 1012,7 10 60
22.07.2017 17:00:00 18,1 17,2 22 12 - - O 1013,0 10 60
22.07.2017 16:00:00 17,9 17,0 22 12 - - OZO 1013,3 10 60
22.07.2017 15:00:00 17,7 16,6 14 8 - - OZO 1013,5 10 18
22.07.2017 14:00:00 17,4 16,2 22 12 - - OZO 1013,3 10 12
22.07.2017 13:00:00 17,2 16,2 25 14 - - O 1012,7 10 12
22.07.2017 12:00:00 17,2 16,1 22 12 - - OZO 1013,0 10 0
22.07.2017 11:00:00 17,4 15,9 29 16 - - OZO 1013,1 10 0
22.07.2017 10:00:00 17,6 15,7 25 14 - - OZO 1012,9 10 0
22.07.2017 09:00:00 17,6 15,6 29 16 - - O 1012,8 10 0
22.07.2017 08:00:00 17,7 15,0 29 16 - - O 1012,7 10 0
22.07.2017 07:00:00 - 14,6 29 16 - - O 1012,7 10 0
22.07.2017 06:00:00 17,8 14,7 25 14 - - O 1013,0 10 -
22.07.2017 05:00:00 17,7 14,5 25 14 - - O 1013,4 10 0
22.07.2017 04:00:00 17,8 14,0 29 16 - - O 1013,8 10 0
22.07.2017 03:00:00 17,6 14,1 29 16 - - O 1014,1 10 0
22.07.2017 02:00:00 17,7 14,1 29 16 - - O 1013,9 10 0
22.07.2017 01:00:00 17,8 12,9 25 14 - - O 1014,2 10 0
22.07.2017 00:00:00 17,6 13,7 25 14 - - ONO 1014,4 10 0
21.07.2017 23:00:00 17,2 13,5 25 14 - - ONO 1014,4 10 0
21.07.2017 22:00:00 17,1 12,9 29 16 - - ONO 1014,2 10 24
21.07.2017 21:00:00 17,1 12,0 25 14 - - ONO 1014,4 10 60
21.07.2017 20:00:00 17,0 11,9 25 14 - - O 1014,5 10 60
21.07.2017 19:00:00 17,0 11,7 22 12 - - ONO 1014,8 10 60
21.07.2017 18:00:00 16,7 10,1 22 12 - - ONO 1015,1 10 60
21.07.2017 17:00:00 16,9 10,8 14 8 - - ONO 1015,4 10 60
21.07.2017 16:00:00 17,0 10,7 11 6 - - ONO 1015,6 10 60
21.07.2017 15:00:00 16,8 10,6 7 4 - - ONO 1015,9 10 60
21.07.2017 14:00:00 19,2 12,2 0 0 - - N 1015,8 10 60
21.07.2017 13:00:00 16,7 10,8 7 4 - - W 1015,7 10 60
21.07.2017 12:00:00 16,2 10,7 11 6 - - W 1015,6 10 60
21.07.2017 11:00:00 16,1 10,9 14 8 - - W 1015,3 10 60
21.07.2017 10:00:00 15,9 10,8 18 10 - - W 1014,6 10 60
21.07.2017 09:00:00 15,9 10,6 22 12 - - W 1014,2 10 60
21.07.2017 08:00:00 15,9 10,8 22 12 - - W 1013,6 10 60
21.07.2017 07:00:00 16,0 11,3 25 14 - - W 1013,1 10 36
21.07.2017 06:00:00 16,1 11,8 25 14 - - W 1012,6 10 0
21.07.2017 05:00:00 16,1 12,2 32 18 - - W 1012,3 10 0
21.07.2017 04:00:00 16,4 13,2 32 18 47 25 W 1011,8 10 0
21.07.2017 03:00:00 - - - - - - - - - -
21.07.2017 02:00:00 16,5 14,4 40 21 - - W 1010,7 10 0
21.07.2017 01:00:00 17,1 15,4 40 21 54 29 W 1010,3 8 0
21.07.2017 00:00:00 17,6 17,1 25 14 - - ZW 1009,5 10 0
20.07.2017 23:00:00 17,6 17,0 11 6 - - Z 1008,9 10 0
20.07.2017 22:00:00 17,5 16,9 11 6 - - Z 1008,5 10 0
20.07.2017 21:00:00 17,7 17,0 7 4 - - ZW 1008,0 10 6
20.07.2017 20:00:00 17,5 16,9 11 6 - - ZW 1007,7 10 0
20.07.2017 19:00:00 17,8 16,8 11 6 - - ZW 1007,4 10 6
20.07.2017 18:00:00 18,0 17,0 11 6 - - ZZW 1007,3 10 18
20.07.2017 17:00:00 18,2 17,7 18 10 - - Z 1007,2 6 12
20.07.2017 16:00:00 18,2 17,7 14 8 - - Z 1007,4 6 0
20.07.2017 15:00:00 18,2 17,6 18 10 - - Z 1007,3 9 0
20.07.2017 14:00:00 17,9 17,6 14 8 - - ZO 1007,3 6 0
20.07.2017 13:00:00 17,8 17,6 22 12 - - ZO 1007,3 6 0
20.07.2017 12:00:00 17,5 17,5 18 10 - - ZO 1007,7 8 0
20.07.2017 11:00:00 17,4 17,4 22 12 - - OZO 1007,5 6 0
20.07.2017 10:00:00 17,4 17,3 14 8 - - O 1007,2 3,7 0
20.07.2017 09:00:00 17,6 17,5 18 10 - - ZZO 1007,7 2,8 0
20.07.2017 08:00:00 17,6 17,6 22 12 - - ZZO 1007,4 4,2 0
20.07.2017 07:00:00 17,6 17,6 14 8 - - ZZO 1007,0 6 0
20.07.2017 06:00:00 17,4 17,1 18 10 - - ZO 1007,1 4,8 0
20.07.2017 05:00:00 17,5 17,3 22 12 - - ZO 1007,3 5 0
20.07.2017 04:00:00 17,6 17,0 22 12 - - ZO 1008,2 10 0
20.07.2017 03:00:00 17,9 17,1 25 14 - - ZO 1008,3 10 0
20.07.2017 02:00:00 18,1 17,1 29 16 - - ZO 1008,6 10 0
20.07.2017 01:00:00 18,4 16,9 32 18 47 25 ZO 1008,7 10 0
20.07.2017 00:00:00 19,1 17,0 40 21 50 27 OZO 1008,4 10 0
19.07.2017 23:00:00 19,4 16,9 43 23 - - OZO 1008,3 10 0
19.07.2017 22:00:00 19,5 16,8 43 23 58 31 OZO 1008,8 10 0
19.07.2017 21:00:00 19,1 16,6 47 25 61 33 O 1009,0 10 0
19.07.2017 20:00:00 19,1 17,4 43 23 - - O 1009,5 5 0
19.07.2017 19:00:00 18,6 17,3 43 23 58 31 NO 1010,6 2,8 0
19.07.2017 18:00:00 18,9 17,0 40 21 47 25 NNO 1010,3 5 0
19.07.2017 17:00:00 19,9 16,7 36 19 - - O 1010,2 10 24
19.07.2017 16:00:00 19,8 16,6 36 19 - - O 1011,0 10 48
19.07.2017 15:00:00 19,3 16,7 32 18 - - O 1011,8 10 60
19.07.2017 14:00:00 18,7 16,6 32 18 - - O 1012,4 10 60
19.07.2017 13:00:00 18,1 16,0 32 18 - - O 1013,1 10 24
19.07.2017 12:00:00 17,7 15,4 36 19 - - O 1013,5 10 36
19.07.2017 11:00:00 17,4 15,2 32 18 - - O 1014,4 10 60
19.07.2017 10:00:00 17,2 14,8 36 19 - - O 1014,8 10 60
19.07.2017 09:00:00 17,2 14,4 32 18 - - O 1015,4 10 60
19.07.2017 08:00:00 17,1 14,1 36 19 - - O 1015,9 10 60
19.07.2017 07:00:00 17,1 14,1 36 19 47 25 OZO 1015,9 10 60
19.07.2017 06:00:00 16,9 14,2 32 18 - - O 1016,5 10 0
19.07.2017 05:00:00 16,8 14,3 29 16 - - OZO 1016,9 10 0
19.07.2017 04:00:00 16,9 15,2 29 16 - - O 1017,7 10 0
19.07.2017 03:00:00 16,7 14,1 32 18 - - ONO 1018,3 10 0
19.07.2017 02:00:00 16,6 14,4 32 18 - - ONO 1018,6 10 0
19.07.2017 01:00:00 16,9 14,4 32 18 - - NO 1018,9 10 0
19.07.2017 00:00:00 16,9 13,9 29 16 - - NO 1019,1 10 0
18.07.2017 23:00:00 16,9 13,8 25 14 - - NO 1019,4 10 0
18.07.2017 22:00:00 17,2 13,4 22 12 - - NO 1019,8 10 36
18.07.2017 21:00:00 17,3 13,0 22 12 - - NO 1019,9 10 60
18.07.2017 20:00:00 17,3 12,7 18 10 - - NO 1020,0 2,4 60
18.07.2017 19:00:00 17,2 12,8 18 10 - - NO 1020,2 10 60
18.07.2017 18:00:00 16,9 11,5 14 8 - - NO 1020,8 10 60
18.07.2017 17:00:00 16,9 12,0 11 6 - - ONO 1021,4 10 60
18.07.2017 16:00:00 16,8 11,5 7 4 - - NO 1021,9 10 60
18.07.2017 15:00:00 16,6 11,5 7 4 - - O 1022,5 10 60
18.07.2017 14:00:00 16,6 12,6 7 4 - - O 1023,0 10 60
18.07.2017 13:00:00 16,5 12,3 4 2 - - O 1023,3 10 60
18.07.2017 12:00:00 16,3 12,1 7 4 - - O 1023,5 10 54
18.07.2017 11:00:00 16,3 12,4 7 4 - - O 1023,6 10 30
18.07.2017 10:00:00 16,0 12,7 7 4 - - NO 1023,6 10 18
18.07.2017 09:00:00 15,7 12,5 7 4 - - N 1023,5 10 12
18.07.2017 08:00:00 15,9 12,6 11 6 - - NNW 1023,4 10 48
18.07.2017 07:00:00 15,7 12,6 11 6 - - N 1023,1 10 36
18.07.2017 06:00:00 15,6 11,6 11 6 - - NW 1022,8 10 0
18.07.2017 05:00:00 15,5 11,3 14 8 - - NNW 1022,8 10 0
18.07.2017 04:00:00 15,6 11,5 14 8 - - WNW 1023,1 10 0
18.07.2017 03:00:00 15,7 11,1 14 8 - - NW 1023,3 10 0
18.07.2017 02:00:00 15,9 12,2 14 8 - - W 1023,3 10 0
18.07.2017 01:00:00 15,6 12,0 11 6 - - W 1023,2 10 0
18.07.2017 00:00:00 15,9 11,9 18 10 - - NW 1023,2 10 0
17.07.2017 23:00:00 15,9 11,6 18 10 - - NW 1023,1 10 0
17.07.2017 22:00:00 15,9 11,8 22 12 - - NW 1023,1 10 0
17.07.2017 21:00:00 15,9 12,0 22 12 - - WNW 1022,8 10 30
17.07.2017 20:00:00 16,0 11,9 25 14 - - WNW 1022,7 10 6
17.07.2017 19:00:00 16,0 12,1 29 16 - - WNW 1022,5 10 0
17.07.2017 18:00:00 16,0 11,3 29 16 - - W 1022,5 10 12
17.07.2017 17:00:00 16,3 12,1 25 14 - - W 1022,6 10 48
17.07.2017 16:00:00 16,3 12,4 29 16 - - W 1022,4 10 42
17.07.2017 15:00:00 - - - - - - - - - -
17.07.2017 14:00:00 16,3 12,1 29 16 - - W 1022,7 10 48
17.07.2017 13:00:00 16,3 12,8 29 16 - - WZW 1022,4 9 60
17.07.2017 12:00:00 16,2 12,1 25 14 - - W 1022,3 10 60
17.07.2017 11:00:00 16,2 11,5 22 12 - - W 1022,4 10 60
17.07.2017 10:00:00 16,3 12,7 25 14 - - W 1022,2 10 54
17.07.2017 09:00:00 16,0 12,4 25 14 - - W 1021,9 10 54
17.07.2017 08:00:00 15,8 12,0 25 14 - - WNW 1021,5 10 48

tt = temperatuur
td = dauwpunt
ff = windsnelheid
fx = windstoten
dd = windrichting
ppp = luchtdruk
vv = zicht
sd = Zonneschijnduur

Weerstations in de omgeving